"SCET";"TARGET";"ELECTRON_DENSITY";"ERROR_FLAG";"ELECTRON_DENSITY_ERROR";"FREQ_FCE";"MEASURED_VALUE";"MEASURED_ITEM";"FREQ_PLASMA";"FREQ_UPPER_HYBRID";"FREQ_R_EQUALS_ZERO";"FREQ_L_EQUALS_ZERO";"ORBIT_NUMBER";"SATURN_RADIUS";"SATURN_IAU_LONGITUDE";"SATURN_SLS4_S_LONGITUDE";"SATURN_SLS4_N_LONGITUDE";"SATURN_SLS5_S_LONGITUDE";"SATURN_SLS5_N_LONGITUDE";"SATURN_LOCAL_TIME";"SATURN_KRONOGRAPHIC_LATITUDE";"SATURN_MAGNETIC_LATITUDE";"SATURN_L";"SATURN_L_OFFSET";"SATURN_SOLAR_EQUATORIAL_X";"SATURN_SOLAR_EQUATORIAL_Y";"SATURN_SOLAR_EQUATORIAL_Z";"SATURN_ALTITUDE";"ENCELADUS_ENCOUNTER_NUMBER";"ENCELADUS_RADIUS";"ENCELADUS_COROTATIONAL_X";"ENCELADUS_COROTATIONAL_Y";"ENCELADUS_COROTATIONAL_Z";"ENCELADUS_TRUE_ANOMALY";"ENCELADUS_PERIAPSIS_TIME";"JUPITER_RADIUS";"JUPITER_SYSTEMIII_LONGITUDE";"JUPITER_MAGNETIC_LATITUDE";"JUPITER_MAGNETIC_LOCAL_TIME";"JUPITER_L";"IO_PHASE";"EARTH_RADIUS";"EARTH_MAGNETIC_LATITUDE";"EARTH_LOCAL_TIME";"EARTH_L"
"[UTC]";"[0=Saturn, 1=Enceladus, 2=Jupiter, 3=Earth]";"[cm-3]";"[0=automated, 1=manual]";"[normalized density error]";"[Hz]";"[Hz]";"[0=upper hybrid frequency, 1=plasma frequency cutoff]";"[Hz]";"[Hz]";"[Hz]";"[Hz}";"[0, A, B, C, 3, 4, ... , 292, 293]";"[Rs where 1Rs=60268km]";"[degrees]";"[degrees]";"[degrees]";"[degrees]";"[degrees]";"[hours]";"[degrees]";"[degrees where offset=2293km north]";"[Rs where 1Rs=60268km]";"[Rs where 1Rs=60268km and offset=2293km north]";"[Rs where 1Rs=60268km]";"[Rs where 1Rs=60268km]";"[Rs where 1Rs=60268km]";"[km where ellipsoid a,b=60268km and c=54364km]";"[E0, E1, E2, ... , E21, E22]";"[Renc where 1Renc=252.1km]";"[Renc where 1Renc=252.1km]";"[Renc where 1Renc=252.1km]";"[Renc where 1Renc=252.1km]";"[degrees]";"[UTC]";"[Rj where 1Rj=71492km]";"[degrees]";"[degrees using JRM09 model]";"[hours using JRM09 model]";"[Rj where 1Rj=71492km]";"[degrees]";"[Re where 1Re=6378.1366km]";"[degrees]";"[hours]";"[Re where 1Re=6378.1366km]"
2010-02-14T00:00:07.707Z;0;3.6520e+01;0;     0.082;  2368.156;  54316.129; 0;  54264.480;  54316.129;  55461.473;  53093.316;126;   5.966; 247.169;;; 304.860;  65.660;  13.457;  -0.256;  -0.621;   5.967;   5.961;   5.538;   2.221;  -0.027;;;;;;;;;;;;;;;;;;
2010-02-14T00:00:15.707Z;0;3.6580e+01;0;     0.082;  2368.156;  54363.594; 0;  54311.988;  54363.594;  55508.973;  53140.816;126;   5.968; 247.231;;; 304.922;  65.722;  13.458;  -0.256;  -0.621;   5.968;   5.962;   5.538;   2.222;  -0.027;;;;;;;;;;;;;;;;;;
2010-02-14T00:00:23.707Z;0;3.6390e+01;0;     0.083;  2368.156;  54226.410; 0;  54174.676;  54226.410;  55371.691;  53003.535;126;   5.969; 247.294;;; 304.984;  65.784;  13.458;  -0.256;  -0.621;   5.969;   5.963;   5.539;   2.224;  -0.027;;;;;;;;;;;;;;;;;;
2010-02-14T00:00:31.707Z;0;3.6650e+01;0;     0.084;  2368.156;  54414.727; 0;  54363.172;  54414.727;  55560.141;  53191.984;126;   5.970; 247.356;;; 305.047;  65.847;  13.459;  -0.256;  -0.621;   5.970;   5.964;   5.540;   2.226;  -0.027;;;;;;;;;;;;;;;;;;
2010-02-14T00:00:39.707Z;0;3.6510e+01;0;     0.080;  2368.156;  54308.355; 0;  54256.699;  54308.355;  55453.695;  53085.539;126;   5.971; 247.419;;; 305.109;  65.909;  13.460;  -0.256;  -0.621;   5.971;   5.965;   5.540;   2.227;  -0.027;;;;;;;;;;;;;;;;;;
2010-02-14T00:00:47.707Z;0;3.6520e+01;0;     0.082;  2368.156;  54316.129; 0;  54264.480;  54316.129;  55461.473;  53093.316;126;   5.973; 247.482;;; 305.171;  65.971;  13.461;  -0.256;  -0.621;   5.973;   5.967;   5.541;   2.229;  -0.027;;;;;;;;;;;;;;;;;;
2010-02-14T00:00:55.707Z;0;3.6510e+01;0;     0.082;  2368.156;  54314.980; 0;  54263.328;  54314.980;  55460.324;  53092.168;126;   5.974; 247.544;;; 305.233;  66.033;  13.462;  -0.256;  -0.620;   5.974;   5.968;   5.542;   2.231;  -0.027;;;;;;;;;;;;;;;;;;
2010-02-14T00:01:03.707Z;0;3.6430e+01;0;     0.080;  2355.724;  54249.523; 0;  54198.352;  54249.523;  55389.012;  53033.289;126;   5.975; 247.607;;; 305.295;  66.095;  13.463;  -0.256;  -0.620;   5.975;   5.969;   5.542;   2.232;  -0.027;;;;;;;;;;;;;;;;;;
2010-02-14T00:01:11.707Z;0;3.6360e+01;0;     0.088;  2355.724;  54197.293; 0;  54146.070;  54197.293;  55336.742;  52981.020;126;   5.976; 247.669;;; 305.357;  66.157;  13.463;  -0.256;  -0.620;   5.976;   5.970;   5.543;   2.234;  -0.027;;;;;;;;;;;;;;;;;;
2010-02-14T00:01:19.707Z;0;3.6520e+01;0;     0.083;  2355.724;  54320.922; 0;  54269.816;  54320.922;  55460.461;  53104.734;126;   5.977; 247.732;;; 305.420;  66.220;  13.464;  -0.256;  -0.620;   5.978;   5.972;   5.544;   2.236;  -0.027;;;;;;;;;;;;;;;;;;
2010-02-14T00:01:27.707Z;0;3.6530e+01;0;     0.079;  2355.724;  54325.684; 0;  54274.582;  54325.684;  55465.227;  53109.500;126;   5.979; 247.795;;; 305.482;  66.282;  13.465;  -0.256;  -0.620;   5.979;   5.973;   5.544;   2.237;  -0.027;;;;;;;;;;;;;;;;;;
2010-02-14T00:01:35.707Z;0;3.6110e+01;0;     0.086;  2355.724;  54010.977; 0;  53959.578;  54010.977;  55150.297;  52794.570;126;   5.980; 247.857;;; 305.544;  66.344;  13.466;  -0.255;  -0.620;   5.980;   5.974;   5.545;   2.239;  -0.027;;;;;;;;;;;;;;;;;;
2010-02-14T00:01:43.707Z;0;3.6300e+01;0;     0.081;  2355.724;  54156.836; 0;  54105.578;  54156.836;  55296.258;  52940.535;126;   5.981; 247.920;;; 305.606;  66.406;  13.467;  -0.255;  -0.620;   5.981;   5.975;   5.546;   2.241;  -0.027;;;;;;;;;;;;;;;;;;
2010-02-14T00:01:51.707Z;0;3.5890e+01;0;     0.086;  2355.724;  53848.555; 0;  53797.000;  53848.555;  54987.758;  52632.031;126;   5.982; 247.983;;; 305.668;  66.468;  13.468;  -0.255;  -0.620;   5.983;   5.977;   5.546;   2.242;  -0.027;;;;;;;;;;;;;;;;;;
2010-02-14T00:01:59.707Z;0;3.5870e+01;0;     0.083;  2355.724;  53832.406; 0;  53780.840;  53832.406;  54971.598;  52615.871;126;   5.984; 248.045;;; 305.731;  66.531;  13.468;  -0.255;  -0.620;   5.984;   5.978;   5.547;   2.244;  -0.027;;;;;;;;;;;;;;;;;;
2010-02-14T00:02:07.706Z;0;3.5820e+01;0;     0.084;  2344.608;  53794.941; 0;  53743.824;  53794.941;  54928.910;  52584.305;126;   5.985; 248.108;;; 305.793;  66.593;  13.469;  -0.255;  -0.620;   5.985;   5.979;   5.548;   2.246;  -0.027;;;;;;;;;;;;;;;;;;
2010-02-14T00:02:15.706Z;0;3.6170e+01;0;     0.087;  2344.608;  54061.527; 0;  54010.660;  54061.527;  55195.688;  52851.078;126;   5.986; 248.170;;; 305.855;  66.655;  13.470;  -0.255;  -0.619;   5.986;   5.980;   5.548;   2.247;  -0.027;;;;;;;;;;;;;;;;;;
2010-02-14T00:02:23.706Z;0;3.6330e+01;0;     0.080;  2344.608;  54175.098; 0;  54124.340;  54175.098;  55309.336;  52964.730;126;   5.987; 248.233;;; 305.917;  66.717;  13.471;  -0.255;  -0.619;   5.987;   5.981;   5.549;   2.249;  -0.027;;;;;;;;;;;;;;;;;;
2010-02-14T00:02:31.706Z;0;3.6330e+01;0;     0.088;  2344.608;  54179.395; 0;  54128.641;  54179.395;  55313.637;  52969.027;126;   5.989; 248.296;;; 305.980;  66.780;  13.472;  -0.255;  -0.619;   5.989;   5.983;   5.549;   2.251;  -0.027;;;;;;;;;;;;;;;;;;
2010-02-14T00:02:39.706Z;0;3.5910e+01;0;     0.081;  2344.608;  53866.676; 0;  53815.625;  53866.676;  55000.695;  52656.090;126;   5.990; 248.358;;; 306.042;  66.842;  13.472;  -0.255;  -0.619;   5.990;   5.984;   5.550;   2.252;  -0.027;;;;;;;;;;;;;;;;;;
2010-02-14T00:02:47.706Z;0;3.6490e+01;0;     0.084;  2344.608;  54299.699; 0;  54249.059;  54299.699;  55434.027;  53089.418;126;   5.991; 248.421;;; 306.104;  66.904;  13.473;  -0.255;  -0.619;   5.991;   5.985;   5.551;   2.254;  -0.027;;;;;;;;;;;;;;;;;;
2010-02-14T00:02:55.706Z;0;3.5860e+01;0;     0.080;  2344.608;  53823.355; 0;  53772.266;  53823.355;  54957.344;  52612.738;126;   5.992; 248.484;;; 306.166;  66.966;  13.474;  -0.255;  -0.619;   5.992;   5.986;   5.551;   2.256;  -0.027;;;;;;;;;;;;;;;;;;
2010-02-14T00:03:11.706Z;0;3.5560e+01;0;     0.090;  2330.916;  53596.824; 0;  53546.113;  53596.824;  54724.254;  52393.340;126;   5.995; 248.609;;; 306.291;  67.091;  13.476;  -0.255;  -0.619;   5.995;   5.989;   5.553;   2.259;  -0.027;;;;;;;;;;;;;;;;;;
2010-02-14T00:03:19.706Z;0;3.6310e+01;0;     0.082;  2330.916;  54159.836; 0;  54109.652;  54159.836;  55287.660;  52956.746;126;   5.996; 248.672;;; 306.353;  67.153;  13.477;  -0.255;  -0.619;   5.996;   5.990;   5.553;   2.261;  -0.027;;;;;;;;;;;;;;;;;;
2010-02-14T00:03:27.706Z;0;3.6060e+01;0;     0.082;  2330.916;  53976.832; 0;  53926.480;  53976.832;  55104.531;  52773.613;126;   5.997; 248.735;;; 306.416;  67.216;  13.477;  -0.255;  -0.619;   5.997;   5.991;   5.554;   2.262;  -0.027;;;;;;;;;;;;;;;;;;
2010-02-14T00:03:35.706Z;0;3.5760e+01;0;     0.085;  2330.916;  53752.719; 0;  53702.156;  53752.719;  54880.258;  52549.344;126;   5.998; 248.797;;; 306.478;  67.278;  13.478;  -0.255;  -0.619;   5.998;   5.992;   5.555;   2.264;  -0.027;;;;;;;;;;;;;;;;;;
2010-02-14T00:03:43.706Z;0;3.5420e+01;0;     0.097;  2330.916;  53494.613; 0;  53443.809;  53494.613;  54621.973;  52291.055;126;   6.000; 248.860;;; 306.540;  67.340;  13.479;  -0.255;  -0.618;   6.000;   5.994;   5.555;   2.266;  -0.027;;;;;;;;;;;;;;;;;;
2010-02-14T00:03:51.706Z;0;3.5350e+01;0;     0.087;  2330.916;  53440.453; 0;  53389.594;  53440.453;  54567.773;  52236.855;126;   6.001; 248.923;;; 306.602;  67.402;  13.480;  -0.255;  -0.618;   6.001;   5.995;   5.556;   2.267;  -0.027;;;;;;;;;;;;;;;;;;
2010-02-14T00:03:59.706Z;0;3.5900e+01;0;     0.095;  2330.916;  53856.887; 0;  53806.422;  53856.887;  54984.500;  52653.586;126;   6.002; 248.985;;; 306.665;  67.465;  13.481;  -0.255;  -0.618;   6.002;   5.996;   5.557;   2.269;  -0.027;;;;;;;;;;;;;;;;;;
2010-02-14T00:04:07.706Z;0;3.5350e+01;0;     0.101;  2316.552;  53439.059; 0;  53388.824;  53439.059;  54559.664;  52243.113;126;   6.003; 249.048;;; 306.727;  67.527;  13.482;  -0.255;  -0.618;   6.003;   5.997;   5.557;   2.271;  -0.027;;;;;;;;;;;;;;;;;;
2010-02-14T00:04:15.706Z;0;3.5640e+01;0;     0.087;  2316.552;  53663.082; 0;  53613.059;  53663.082;  54783.844;  52467.293;126;   6.005; 249.111;;; 306.789;  67.589;  13.482;  -0.255;  -0.618;   6.005;   5.999;   5.558;   2.272;  -0.027;;;;;;;;;;;;;;;;;;
2010-02-14T00:04:23.706Z;0;3.5390e+01;0;     0.092;  2316.552;  53472.340; 0;  53422.137;  53472.340;  54592.969;  52276.418;126;   6.006; 249.174;;; 306.852;  67.652;  13.483;  -0.255;  -0.618;   6.006;   6.000;   5.559;   2.274;  -0.027;;;;;;;;;;;;;;;;;;
2010-02-14T00:04:31.705Z;0;3.5280e+01;0;     0.090;  2316.552;  53391.480; 0;  53341.203;  53391.480;  54512.051;  52195.500;126;   6.007; 249.236;;; 306.914;  67.714;  13.484;  -0.255;  -0.618;   6.007;   6.001;   5.559;   2.276;  -0.027;;;;;;;;;;;;;;;;;;
2010-02-14T00:04:39.705Z;0;3.5050e+01;0;     0.092;  2316.552;  53213.039; 0;  53162.590;  53213.039;  54333.484;  52016.934;126;   6.008; 249.299;;; 306.976;  67.776;  13.485;  -0.255;  -0.618;   6.008;   6.002;   5.560;   2.277;  -0.027;;;;;;;;;;;;;;;;;;
2010-02-14T00:04:47.705Z;0;3.4780e+01;0;     0.097;  2316.552;  53008.574; 0;  52957.934;  53008.574;  54128.871;  51812.320;126;   6.009; 249.362;;; 307.039;  67.839;  13.486;  -0.255;  -0.618;   6.010;   6.004;   5.561;   2.279;  -0.027;;;;;;;;;;;;;;;;;;
2010-02-14T00:04:55.705Z;0;3.4650e+01;0;     0.097;  2316.552;  52908.875; 0;  52858.137;  52908.875;  54029.102;  51712.551;126;   6.011; 249.425;;; 307.101;  67.901;  13.486;  -0.255;  -0.618;   6.011;   6.005;   5.561;   2.281;  -0.027;;;;;;;;;;;;;;;;;;
2010-02-14T00:05:03.705Z;0;3.4850e+01;0;     0.097;  2303.616;  53065.402; 0;  53015.379;  53065.402;  54179.695;  51876.082;126;   6.012; 249.487;;; 307.163;  67.963;  13.487;  -0.255;  -0.618;   6.012;   6.006;   5.562;   2.282;  -0.027;;;;;;;;;;;;;;;;;;
2010-02-14T00:05:11.705Z;0;3.4990e+01;0;     0.103;  2303.616;  53167.895; 0;  53117.965;  53167.895;  54282.262;  51978.645;126;   6.013; 249.550;;; 307.226;  68.026;  13.488;  -0.255;  -0.617;   6.013;   6.007;   5.562;   2.284;  -0.027;;;;;;;;;;;;;;;;;;
2010-02-14T00:05:19.705Z;0;3.4080e+01;0;     0.098;  2303.616;  52471.770; 0;  52421.180;  52471.770;  53585.641;  51282.023;126;   6.014; 249.613;;; 307.288;  68.088;  13.489;  -0.255;  -0.617;   6.014;   6.008;   5.563;   2.286;  -0.027;;;;;;;;;;;;;;;;;;
2010-02-14T00:05:27.705Z;0;3.4640e+01;0;     0.097;  2303.616;  52905.754; 0;  52855.578;  52905.754;  54019.934;  51716.320;126;   6.016; 249.676;;; 307.350;  68.150;  13.490;  -0.255;  -0.617;   6.016;   6.010;   5.564;   2.287;  -0.027;;;;;;;;;;;;;;;;;;
2010-02-14T00:05:35.705Z;0;3.5120e+01;0;     0.091;  2303.616;  53266.926; 0;  53217.090;  53266.926;  54381.363;  52077.746;126;   6.017; 249.738;;; 307.413;  68.213;  13.491;  -0.255;  -0.617;   6.017;   6.011;   5.564;   2.289;  -0.027;;;;;;;;;;;;;;;;;;
2010-02-14T00:05:43.705Z;0;3.5140e+01;0;     0.094;  2303.616;  53282.273; 0;  53232.453;  53282.273;  54396.719;  52093.105;126;   6.018; 249.801;;; 307.475;  68.275;  13.491;  -0.255;  -0.617;   6.018;   6.012;   5.565;   2.291;  -0.027;;;;;;;;;;;;;;;;;;
2010-02-14T00:05:51.705Z;0;3.4620e+01;0;     0.099;  2303.616;  52885.441; 0;  52835.246;  52885.441;  53999.609;  51695.992;126;   6.019; 249.864;;; 307.538;  68.337;  13.492;  -0.255;  -0.617;   6.019;   6.013;   5.566;   2.292;  -0.027;;;;;;;;;;;;;;;;;;
2010-02-14T00:05:59.705Z;0;3.4660e+01;0;     0.101;  2303.616;  52917.211; 0;  52867.047;  52917.211;  54031.398;  51727.785;126;   6.020; 249.927;;; 307.600;  68.400;  13.493;  -0.255;  -0.617;   6.021;   6.015;   5.566;   2.294;  -0.027;;;;;;;;;;;;;;;;;;
2010-02-14T00:06:07.705Z;0;3.4650e+01;0;     0.101;  2292.500;  52912.379; 0;  52862.691;  52912.379;  54021.367;  51728.867;126;   6.022; 249.990;;; 307.662;  68.462;  13.494;  -0.255;  -0.617;   6.022;   6.016;   5.567;   2.296;  -0.027;;;;;;;;;;;;;;;;;;
2010-02-14T00:06:15.705Z;0;3.3960e+01;0;     0.093;  2292.500;  52383.602; 0;  52333.414;  52383.602;  53492.215;  51199.715;126;   6.023; 250.052;;; 307.725;  68.525;  13.495;  -0.255;  -0.617;   6.023;   6.017;   5.568;   2.297;  -0.027;;;;;;;;;;;;;;;;;;
2010-02-14T00:06:23.705Z;0;3.4720e+01;0;     0.102;  2292.500;  52961.762; 0;  52912.121;  52961.762;  54070.785;  51778.285;126;   6.024; 250.115;;; 307.787;  68.587;  13.495;  -0.255;  -0.617;   6.024;   6.018;   5.568;   2.299;  -0.027;;;;;;;;;;;;;;;;;;
2010-02-14T00:06:31.705Z;0;3.4660e+01;0;     0.098;  2292.500;  52915.402; 0;  52865.719;  52915.402;  54024.395;  51731.895;126;   6.025; 250.178;;; 307.849;  68.649;  13.496;  -0.255;  -0.616;   6.026;   6.019;   5.569;   2.301;  -0.027;;;;;;;;;;;;;;;;;;
2010-02-14T00:06:39.705Z;0;3.3930e+01;0;     0.093;  2292.500;  52354.934; 0;  52304.719;  52354.934;  53463.527;  51171.027;126;   6.027; 250.241;;; 307.912;  68.712;  13.497;  -0.255;  -0.616;   6.027;   6.021;   5.570;   2.302;  -0.027;;;;;;;;;;;;;;;;;;
2010-02-14T00:06:47.704Z;0;3.3900e+01;0;     0.093;  2292.500;  52334.184; 0;  52283.949;  52334.184;  53442.762;  51150.262;126;   6.028; 250.304;;; 307.974;  68.774;  13.498;  -0.255;  -0.616;   6.028;   6.022;   5.570;   2.304;  -0.027;;;;;;;;;;;;;;;;;;
2010-02-14T00:06:55.704Z;0;3.3640e+01;0;     0.089;  2292.500;  52134.270; 0;  52083.840;  52134.270;  53242.703;  50950.203;126;   6.029; 250.367;;; 308.037;  68.837;  13.499;  -0.255;  -0.616;   6.029;   6.023;   5.571;   2.306;  -0.027;;;;;;;;;;;;;;;;;;
2010-02-14T00:07:03.704Z;0;3.4800e+01;0;     0.097;  2279.060;  53025.121; 0;  52976.121;  53025.121;  54127.906;  51848.844;126;   6.030; 250.429;;; 308.099;  68.899;  13.500;  -0.255;  -0.616;   6.030;   6.024;   5.571;   2.307;  -0.027;;;;;;;;;;;;;;;;;;
2010-02-14T00:07:11.704Z;0;3.5180e+01;0;     0.099;  2279.060;  53312.652; 0;  53263.918;  53312.652;  54415.633;  52136.574;126;   6.032; 250.492;;; 308.162;  68.962;  13.500;  -0.255;  -0.616;   6.032;   6.026;   5.572;   2.309;  -0.027;;;;;;;;;;;;;;;;;;
2010-02-14T00:07:19.704Z;0;3.3840e+01;0;     0.092;  2279.060;  52285.109; 0;  52235.414;  52285.109;  53387.371;  51108.312;126;   6.033; 250.555;;; 308.224;  69.024;  13.501;  -0.255;  -0.616;   6.033;   6.027;   5.573;   2.311;  -0.027;;;;;;;;;;;;;;;;;;
2010-02-14T00:07:27.704Z;0;3.4580e+01;0;     0.095;  2279.060;  52858.980; 0;  52809.824;  52858.980;  53961.648;  51682.590;126;   6.034; 250.618;;; 308.286;  69.086;  13.502;  -0.255;  -0.616;   6.034;   6.028;   5.573;   2.312;  -0.027;;;;;;;;;;;;;;;;;;
2010-02-14T00:07:35.704Z;0;3.3890e+01;0;     0.090;  2279.060;  52325.863; 0;  52276.207;  52325.863;  53428.156;  51149.098;126;   6.035; 250.681;;; 308.349;  69.149;  13.503;  -0.255;  -0.616;   6.035;   6.029;   5.574;   2.314;  -0.027;;;;;;;;;;;;;;;;;;
2010-02-14T00:07:43.704Z;0;3.4870e+01;0;     0.097;  2279.060;  53077.855; 0;  53028.902;  53077.855;  54180.676;  51901.617;126;   6.036; 250.744;;; 308.411;  69.211;  13.504;  -0.255;  -0.616;   6.037;   6.031;   5.575;   2.316;  -0.027;;;;;;;;;;;;;;;;;;
2010-02-14T00:07:51.704Z;0;3.4680e+01;0;     0.101;  2279.060;  52935.867; 0;  52886.785;  52935.867;  54038.590;  51759.527;126;   6.038; 250.806;;; 308.474;  69.274;  13.504;  -0.255;  -0.616;   6.038;   6.032;   5.575;   2.317;  -0.027;;;;;;;;;;;;;;;;;;
2010-02-14T00:07:59.704Z;0;3.3890e+01;0;     0.088;  2279.060;  52328.617; 0;  52278.965;  52328.617;  53430.910;  51151.852;126;   6.039; 250.869;;; 308.536;  69.336;  13.505;  -0.255;  -0.615;   6.039;   6.033;   5.576;   2.319;  -0.027;;;;;;;;;;;;;;;;;;
2010-02-14T00:08:07.704Z;0;3.3550e+01;0;     0.086;  2268.392;  52060.293; 0;  52010.852;  52060.293;  53157.410;  50889.020;126;   6.040; 250.932;;; 308.599;  69.399;  13.506;  -0.255;  -0.615;   6.040;   6.034;   5.577;   2.321;  -0.027;;;;;;;;;;;;;;;;;;
2010-02-14T00:08:15.704Z;0;3.3980e+01;0;     0.093;  2268.392;  52395.691; 0;  52346.566;  52395.691;  53493.047;  51224.656;126;   6.041; 250.995;;; 308.661;  69.461;  13.507;  -0.255;  -0.615;   6.041;   6.035;   5.577;   2.322;  -0.027;;;;;;;;;;;;;;;;;;
2010-02-14T00:08:23.704Z;0;3.3450e+01;0;     0.087;  2268.392;  51989.074; 0;  51939.562;  51989.074;  53086.141;  50817.750;126;   6.043; 251.058;;; 308.724;  69.524;  13.508;  -0.255;  -0.615;   6.043;   6.037;   5.578;   2.324;  -0.027;;;;;;;;;;;;;;;;;;
2010-02-14T00:08:31.704Z;0;3.3480e+01;0;     0.087;  2268.392;  52011.816; 0;  51962.328;  52011.816;  53108.898;  50840.508;126;   6.044; 251.121;;; 308.786;  69.586;  13.509;  -0.254;  -0.615;   6.044;   6.038;   5.579;   2.325;  -0.027;;;;;;;;;;;;;;;;;;
2010-02-14T00:08:39.704Z;0;3.3850e+01;0;     0.090;  2268.392;  52297.848; 0;  52248.629;  52297.848;  53395.133;  51126.742;126;   6.045; 251.184;;; 308.849;  69.649;  13.509;  -0.254;  -0.615;   6.045;   6.039;   5.579;   2.327;  -0.027;;;;;;;;;;;;;;;;;;
2010-02-14T00:08:47.704Z;0;3.4660e+01;0;     0.099;  2268.392;  52915.973; 0;  52867.328;  52915.973;  54013.691;  51745.297;126;   6.046; 251.247;;; 308.911;  69.711;  13.510;  -0.254;  -0.615;   6.046;   6.040;   5.580;   2.329;  -0.027;;;;;;;;;;;;;;;;;;
2010-02-14T00:08:55.704Z;0;3.3900e+01;0;     0.091;  2268.392;  52337.871; 0;  52288.691;  52337.871;  53435.188;  51166.793;126;   6.047; 251.310;;; 308.974;  69.774;  13.511;  -0.254;  -0.615;   6.048;   6.042;   5.580;   2.330;  -0.027;;;;;;;;;;;;;;;;;;
2010-02-14T00:09:03.704Z;0;3.3570e+01;0;     0.091;  2258.984;  52082.090; 0;  52033.078;  52082.090;  53174.828;  50915.844;126;   6.049; 251.372;;; 309.036;  69.836;  13.512;  -0.254;  -0.615;   6.049;   6.043;   5.581;   2.332;  -0.027;;;;;;;;;;;;;;;;;;
2010-02-14T00:09:11.703Z;0;3.3540e+01;0;     0.087;  2258.984;  52053.105; 0;  52004.066;  52053.105;  53145.820;  50886.836;126;   6.050; 251.435;;; 309.099;  69.899;  13.513;  -0.254;  -0.615;   6.050;   6.044;   5.582;   2.334;  -0.027;;;;;;;;;;;;;;;;;;
2010-02-14T00:09:19.703Z;0;3.3680e+01;0;     0.090;  2258.984;  52164.184; 0;  52115.246;  52164.184;  53256.977;  50997.992;126;   6.051; 251.498;;; 309.161;  69.961;  13.513;  -0.254;  -0.615;   6.051;   6.045;   5.582;   2.335;  -0.027;;;;;;;;;;;;;;;;;;
2010-02-14T00:09:27.703Z;0;3.3640e+01;0;     0.085;  2258.984;  52131.953; 0;  52082.988;  52131.953;  53224.727;  50965.742;126;   6.052; 251.561;;; 309.224;  70.024;  13.514;  -0.254;  -0.614;   6.053;   6.046;   5.583;   2.337;  -0.027;;;;;;;;;;;;;;;;;;
2010-02-14T00:09:35.703Z;0;3.3470e+01;0;     0.088;  2258.984;  51999.043; 0;  51949.953;  51999.043;  53091.723;  50832.738;126;   6.054; 251.624;;; 309.286;  70.086;  13.515;  -0.254;  -0.614;   6.054;   6.048;   5.584;   2.339;  -0.027;;;;;;;;;;;;;;;;;;
2010-02-14T00:09:43.703Z;0;3.3380e+01;0;     0.088;  2258.984;  51935.031; 0;  51885.879;  51935.031;  53027.664;  50768.680;126;   6.055; 251.687;;; 309.349;  70.149;  13.516;  -0.254;  -0.614;   6.055;   6.049;   5.584;   2.340;  -0.027;;;;;;;;;;;;;;;;;;
2010-02-14T00:09:51.703Z;0;3.3430e+01;0;     0.091;  2258.984;  51969.539; 0;  51920.418;  51969.539;  53062.195;  50803.211;126;   6.056; 251.750;;; 309.411;  70.211;  13.517;  -0.254;  -0.614;   6.056;   6.050;   5.585;   2.342;  -0.027;;;;;;;;;;;;;;;;;;
2010-02-14T00:09:59.703Z;0;3.3340e+01;0;     0.090;  2258.984;  51901.996; 0;  51852.812;  51901.996;  52994.605;  50735.621;126;   6.057; 251.813;;; 309.474;  70.274;  13.517;  -0.254;  -0.614;   6.057;   6.051;   5.586;   2.344;  -0.027;;;;;;;;;;;;;;;;;;
2010-02-14T00:10:07.703Z;0;3.3260e+01;0;     0.084;  2246.328;  51840.250; 0;  51791.559;  51840.250;  52926.898;  50680.570;126;   6.059; 251.876;;; 309.537;  70.336;  13.518;  -0.254;  -0.614;   6.059;   6.053;   5.586;   2.345;  -0.027;;;;;;;;;;;;;;;;;;
2010-02-14T00:10:15.703Z;0;3.3360e+01;0;     0.083;  2246.328;  51911.973; 0;  51863.348;  51911.973;  52998.672;  50752.344;126;   6.060; 251.939;;; 309.600;  70.399;  13.519;  -0.254;  -0.614;   6.060;   6.054;   5.587;   2.347;  -0.027;;;;;;;;;;;;;;;;;;
2010-02-14T00:10:23.703Z;0;3.3290e+01;0;     0.088;  2246.328;  51861.516; 0;  51812.844;  51861.516;  52948.180;  50701.852;126;   6.061; 252.002;;; 309.663;  70.461;  13.520;  -0.254;  -0.614;   6.061;   6.055;   5.587;   2.349;  -0.027;;;;;;;;;;;;;;;;;;
2010-02-14T00:10:31.703Z;0;3.3600e+01;0;     0.088;  2246.328;  52099.172; 0;  52050.723;  52099.172;  53186.004;  50939.676;126;   6.062; 252.065;;; 309.727;  70.524;  13.521;  -0.254;  -0.614;   6.062;   6.056;   5.588;   2.350;  -0.027;;;;;;;;;;;;;;;;;;
2010-02-14T00:10:39.703Z;0;3.3550e+01;0;     0.093;  2246.328;  52058.898; 0;  52010.410;  52058.898;  53145.703;  50899.375;126;   6.063; 252.128;;; 309.790;  70.586;  13.521;  -0.254;  -0.614;   6.064;   6.058;   5.589;   2.352;  -0.027;;;;;;;;;;;;;;;;;;
2010-02-14T00:10:47.703Z;0;3.3480e+01;0;     0.089;  2246.328;  52007.227; 0;  51958.691;  52007.227;  53093.992;  50847.664;126;   6.065; 252.191;;; 309.853;  70.649;  13.522;  -0.254;  -0.614;   6.065;   6.059;   5.589;   2.354;  -0.027;;;;;;;;;;;;;;;;;;
2010-02-14T00:10:55.703Z;0;3.3410e+01;0;     0.089;  2246.328;  51953.148; 0;  51904.562;  51953.148;  53039.879;  50793.551;126;   6.066; 252.254;;; 309.917;  70.712;  13.523;  -0.254;  -0.613;   6.066;   6.060;   5.590;   2.355;  -0.027;;;;;;;;;;;;;;;;;;
2010-02-14T00:11:03.703Z;0;3.3360e+01;0;     0.086;  2234.036;  51914.871; 0;  51866.781;  51914.871;  52995.824;  50761.789;126;   6.067; 252.317;;; 309.980;  70.774;  13.524;  -0.254;  -0.613;   6.067;   6.061;   5.591;   2.357;  -0.027;;;;;;;;;;;;;;;;;;
2010-02-14T00:11:11.703Z;0;3.2880e+01;0;     0.082;  2234.036;  51538.961; 0;  51490.520;  51538.961;  52619.652;  50385.617;126;   6.068; 252.380;;; 310.043;  70.837;  13.525;  -0.254;  -0.613;   6.068;   6.062;   5.591;   2.359;  -0.027;;;;;;;;;;;;;;;;;;
2010-02-14T00:11:19.703Z;0;3.3320e+01;0;     0.085;  2234.036;  51887.551; 0;  51839.434;  51887.551;  52968.484;  50734.449;126;   6.070; 252.443;;; 310.107;  70.899;  13.525;  -0.254;  -0.613;   6.070;   6.064;   5.592;   2.360;  -0.027;;;;;;;;;;;;;;;;;;
2010-02-14T00:11:27.703Z;0;3.3060e+01;0;     0.085;  2234.036;  51683.746; 0;  51635.441;  51683.746;  52764.539;  50530.504;126;   6.071; 252.506;;; 310.170;  70.962;  13.526;  -0.254;  -0.613;   6.071;   6.065;   5.593;   2.362;  -0.027;;;;;;;;;;;;;;;;;;